Location: Brno
(49.2000°N, 16.6330°E)
Time: 10:16:20
(UTC+01:00)

ISS - Visible Passes

Search period start: 19 February 2019 00:00
Search period end: 01 March 2019 00:00
Orbit: 403 x 411 km, 51.6° (Epoch: 19 February)

Date Brightness Start Highest point End Pass type
(mag) Time Alt. Az. Time Alt. Az. Time Alt. Az.
24 Feb -1.2 05:43:29 10° S 05:45:51 19° SE 05:48:14 10° E visible
25 Feb -0.8 04:53:24 10° SSE 04:54:34 11° SE 04:55:44 10° ESE visible
26 Feb -2.4 05:36:02 10° SW 05:39:04 35° SSE 05:42:06 10° E visible
27 Feb -1.8 04:46:29 19° S 04:47:40 23° SE 04:50:19 10° E visible
28 Feb -0.9 03:57:12 13° ESE 03:57:12 13° ESE 03:58:10 10° ESE visible
28 Feb -3.6 05:29:55 16° SW 05:32:21 66° SSE 05:35:37 10° ENE visible
